Regional Weather Roundup
Issued by NWS Sioux Falls, SD

Home | Current Version | Previous Version | Graphics & Text | Print | Product List | Glossary On
Versions: 1 2 3 4 5 6 7 8 9 10 11 12 13 14 15 16 17 18 19 20 21 22 23 24 25 26 27 28 29 30 31 32 33 34 35 36 37 38 39 40 41 42 43 44 45 46 47 48 49 50
000
ASUS43 KFSD 202310
RWRFSD

WEATHER ROUNDUP FOR SE SOUTH DAKOTA/SW MINNESOTA/NW IOWA
NATIONAL WEATHER SERVICE SIOUX FALLS SD
600 PM CDT SUN AUG 20 2017

NOTE: "FAIR" INDICATES FEW OR NO CLOUDS BELOW 12,000 FEET WITH NO
SIGNIFICANT WEATHER AND OR OBSTRUCTIONS TO VISIBILITY.


SDZ038>040-050-052>070-210000-
SOUTHEAST SOUTH DAKOTA

CITY           SKY/WX    TMP DP  RH WIND       PRES   REMARKS
BROOKINGS      MOSUNNY   72  56  57 NE10      30.03R
CHAMBERLAIN    SUNNY     81  56  42 N10G18    29.98F
HURON          SUNNY     76  54  46 NE10      30.00S
MADISON        FAIR      73  63  68 NE10      30.02S
MITCHELL       MOSUNNY   80  65  59 NE14      29.97F
SIOUX FALLS    PTSUNNY   79  69  71 NE9       29.98R
WINNER         FAIR      82  56  40 NE18G25   29.98S
YANKTON        PTSUNNY   83  71  67 NE12      29.95S
$$

MNZ071-072-080-081-089-090-097-098-210000-
SOUTHWEST MINNESOTA

CITY           SKY/WX    TMP DP  RH WIND       PRES   REMARKS
FAIRMONT       SUNNY     83  70  64 N3        29.96
JACKSON        MOSUNNY   79  70  73 CALM      29.99R
LUVERNE        PTSUNNY   77  64  65 NE7       29.98S
MARSHALL       PTSUNNY   71  64  78 N9        30.02R
MONTEVIDEO     MOSUNNY   73  63  68 N7        30.02R
PIPESTONE      SUNNY     77  61  57 NE12G17   30.02R
REDWOOD FALLS  PTSUNNY   74  64  71 NW10      29.99R
TRACY          CLOUDY    74  66  76 N8        30.01S
WINDOM         SUNNY     79  68  69 N6        29.99R
WORTHINGTON    PTSUNNY   78  69  73 N6        30.00R
$$

IAZ001>003-012>014-020>022-031-032-NEZ013-014-SDZ071-210000-
NORTHWEST IOWA

CITY           SKY/WX    TMP DP  RH WIND       PRES   REMARKS
CHEROKEE       SUNNY     85  68  56 S7        29.96R
DENISON        PTSUNNY   81  68  65 S6G12     29.99R
ESTHERVILLE    SUNNY     83  67  58 CALM      29.96R
ORANGE CITY    MOSUNNY   84  70  61 CALM      29.98R
SHELDON        CLOUDY    82  68  61 CALM      29.96R
SIOUX CITY     MOSUNNY   84  68  58 S10       29.96R
SPENCER        SUNNY     85  66  53 SW5       29.97R
STORM LAKE     SUNNY     82  70  65 SW6       29.97S
$$

ABBREVIATIONS USED IN REMARKS
   TC - TEMPERATURE IN CELSIUS
  WCI - WIND CHILL INDEX
   HX - HEAT INDEX
  VSB - VISIBILITY





USA.gov is the U.S. government's official web portal to all federal, state and local government web resources and services.